[[{"header":{"parameterUnit":"m.s-1","parameterCategory":1,"la1":30.2991,"la2":30.254,"lo1":-89.0895,"lo2":-89.0444,"dy":0.0017,"dx":0.0017,"nx":28,"ny":28,"refTime":"2026-02-05T03:00:00:Z","depth":0,"parameterNumber":2,"parameterNumberName":"U-component_of_WINDS"},"data":[0,0,0,0,0,0,0,0,0,0,0,0,0,0,0,0,0,0,0,0,0,0,0,0,0,0,0,0,0,0,0,0,0,0,0,0,0,0,0,0,0,0,0,0,0,0,0,0,0,0,0,0,0,0,0,0,0,0,3.246,3.2459,0,3.244,3.244,3.2439,3.2376,3.2374,3.2373,3.2371,3.2352,3.2353,3.2354,0,0,0,0,0,0,0,0,0,0,0,0,0,3.2444,3.2444,3.246,3.2459,3.2459,3.244,3.244,3.2439,3.2376,3.2374,3.2372,3.2371,3.2352,3.2353,3.2354,0,0,0,0,0,0,0,0,0,0,0,0,0,3.244,3.2445,3.246,3.2425,3.2422,3.244,3.244,3.2439,3.2376,3.2374,3.2372,3.237,3.2352,3.2353,3.2354,3.2405,0,0,3.2358,3.2358,0,0,0,0,0,0,0,0,3.244,3.2441,3.243,3.2427,3.2424,3.2408,3.2427,3.2428,3.2377,3.2393,3.2371,3.2369,3.2373,3.2372,3.2373,3.2404,3.2403,3.2358,3.2359,3.2359,3.236,0,0,0,0,0,0,0,3.2441,3.2441,3.2452,3.243,3.2426,3.2411,3.2408,3.2427,3.2395,3.2392,3.2387,3.2386,3.237,3.2372,3.2372,3.2403,3.2358,3.2359,3.236,3.236,3.2475,3.2477,0,0,0,0,0,0,3.2446,3.2442,3.2452,3.2451,3.2427,3.2413,3.241,3.2415,3.2395,3.239,3.2388,3.2383,3.2371,3.2371,3.2371,3.2429,3.2359,3.2361,3.2361,3.2473,3.2475,3.2478,0,0,0,0,0,0,3.2446,3.2447,3.2453,3.2445,3.2445,3.2416,3.2422,3.2416,3.2417,3.2392,3.2386,3.2395,3.2369,3.237,3.2397,3.2428,3.2361,3.2362,3.247,3.2473,3.2477,3.2546,0,0,0,0,0,0,3.2445,3.2448,3.2466,3.2446,3.2446,3.2479,3.2424,3.2417,3.242,3.2413,3.2397,3.2392,3.2368,3.2395,3.2398,3.2428,3.2363,3.2467,3.2472,3.2476,3.254,3.2551,3.256,0,0,0,0,0,3.2445,3.2486,3.2467,3.2469,3.2468,3.2481,3.248,3.2451,3.2422,3.2441,3.2425,3.2393,3.2424,3.2399,3.2401,3.2432,3.2465,3.247,3.2475,3.2536,3.2549,3.256,0,0,0,0,0,0,3.251,3.2483,3.2461,3.2497,3.2492,3.247,3.2492,3.2465,3.2468,3.2462,3.2426,3.2423,3.2455,3.2447,3.2419,3.248,3.2439,3.2445,3.2485,3.2497,3.2506,3.2507,3.2364,0,0,0,0,0,3.2529,3.2541,3.2517,3.2551,3.2549,3.2521,3.2526,3.2504,3.2497,3.2494,3.248,3.2475,3.2483,3.249,3.2496,3.2539,3.2535,3.2562,3.2572,3.258,3.2585,3.2608,3.2619,3.2495,3.2495,3.2495,0,0,3.2567,3.2554,3.2563,3.2563,3.2556,3.2571,3.252,3.2537,3.2547,3.2497,3.2521,3.2511,3.2503,3.2539,3.2554,3.2533,3.2619,3.2586,3.2593,3.2594,3.2614,3.2626,3.2637,3.2498,3.2498,3.2497,0,0,3.2643,3.2635,3.2662,3.2657,3.2647,3.2629,3.2636,3.2618,3.2609,3.2634,3.2597,3.2609,3.2625,3.262,3.262,3.2698,3.2669,3.2701,3.2752,3.2774,3.2784,3.2793,3.282,3.283,3.2707,3.2707,3.2707,0,3.2692,3.2711,3.268,3.2699,3.2701,3.2656,3.2684,3.2681,3.2674,3.2676,3.2653,3.2672,3.2664,3.2698,3.2717,3.2718,3.2725,3.2702,3.2785,3.2793,3.2801,3.2827,3.2837,3.2711,3.271,3.271,3.271,0,3.2772,3.2786,3.2809,3.2804,3.2808,3.2832,3.2805,3.2813,3.2791,3.2776,3.2802,3.279,3.2794,3.2801,3.278,3.2833,3.282,3.2792,3.2749,3.2817,3.2841,3.285,3.2716,3.2715,3.2714,3.2713,0,0,3.2887,3.2865,3.2874,3.2871,3.2859,3.2869,3.2892,3.2895,3.2903,3.2901,3.2919,3.2934,3.2908,3.2908,3.2886,3.2906,3.2968,3.2875,3.2874,3.2892,3.3026,3.3047,3.3059,3.295,3.2951,3.2953,3.3027,0,3.2959,3.2995,3.2968,3.3009,3.3022,3.2982,3.3001,3.2996,3.2983,3.2993,3.2978,3.2989,3.2954,3.2954,3.2972,3.2957,3.2995,3.2951,3.2966,3.2967,3.2968,3.3071,3.3093,3.3163,3.3036,3.3037,3.3038,0,3.3047,3.3049,3.3092,3.3077,3.3082,3.31,3.3101,3.3111,3.3105,3.3094,3.3095,3.3068,3.309,3.305,3.3079,3.3051,3.3056,3.305,3.3052,3.3051,3.3006,3.3073,3.3184,3.3195,3.3053,3.3051,3.305,0,3.3127,3.314,3.3167,3.3166,3.315,3.3164,3.3158,3.3149,3.3154,3.3156,3.3158,3.3163,3.3165,3.317,3.3146,3.3119,3.3179,3.3136,3.317,3.3171,3.3183,3.3183,3.3297,3.3188,3.3188,3.3188,3.3188,0,3.321,3.3237,3.3202,3.3219,3.3249,3.3219,3.325,3.3239,3.3233,3.3247,3.3213,3.3227,3.3195,3.3206,3.3188,3.3215,3.3217,3.3209,3.3203,3.3211,3.3212,3.3213,3.3207,3.3191,3.319,3.319,3.3189,0,3.3302,3.328,3.3307,3.329,3.3287,3.331,3.3295,3.331,3.3295,3.3314,3.3317,3.3294,3.3305,3.3282,3.3291,3.3278,3.3317,3.3304,3.3319,3.3315,3.335,3.3347,3.3468,3.3482,3.3365,3.3366,3.3367,0,3.3356,3.3376,3.3362,3.3369,3.3365,3.3377,3.3381,3.3353,3.3359,3.3355,3.3371,3.3379,3.3385,3.3406,3.339,3.3397,3.3383,3.3425,3.3384,3.3392,3.3383,3.3382,3.3384,3.3434,3.3435,3.3436,3.3437,0,3.3454,3.3442,3.3449,3.3454,3.346,3.3462,3.3462,3.347,3.344,3.3449,3.346,3.3465,3.3474,3.3484,3.3487,3.3481,3.3454,3.3451,3.3459,3.3466,3.3474,3.347,3.3341,3.3447,3.3446,3.3446,3.3445,3.3445,3.3528,3.3544,3.3537,3.3547,3.3544,3.3545,3.3558,3.3545,3.3554,3.356,3.3543,3.3559,3.3553,3.3555,3.3552,3.3564,3.3545,3.3557,3.356,3.3563,3.3569,3.3473,3.3565,3.3565,3.3564,3.3564,3.3564,0,3.3623,3.3617,3.3627,3.3627,3.3636,3.361,3.3609,3.3617,3.3632,3.3629,3.3635,3.3649,3.3659,3.3644,3.3651,3.3664,3.3652,3.3667,3.3665,3.3664,3.3585,3.3577,3.3676,3.3676,3.3676,3.3676,3.3676,3.3676,3.3674,3.37,3.3688,3.3714,3.3707,3.3722,3.3723,3.3724,3.3722,3.3739,3.3747,3.3737,3.373,3.3737,3.3744,3.374,3.3744,3.3763,3.3754,3.3681,3.367,3.3659,3.3651,3.3764,3.3764,3.3832,3.3833,3.3833]},{"header":{"parameterUnit":"m.s-1","parameterCategory":1,"la1":30.2991,"la2":30.254,"lo1":-89.0895,"lo2":-89.0444,"dy":0.0017,"dx":0.0017,"nx":28,"ny":28,"refTime":"2026-02-05T03:00:00:Z","depth":0,"parameterNumber":3,"parameterNumberName":"V-component_of_WINDS"},"data":[0,0,0,0,0,0,0,0,0,0,0,0,0,0,0,0,0,0,0,0,0,0,0,0,0,0,0,0,0,0,0,0,0,0,0,0,0,0,0,0,0,0,0,0,0,0,0,0,0,0,0,0,0,0,0,0,0,0,-6.3152,-6.3154,0,-6.3292,-6.3294,-6.3295,-6.3224,-6.322,-6.3216,-6.3213,-6.3355,-6.3362,-6.3369,0,0,0,0,0,0,0,0,0,0,0,0,0,-6.2822,-6.2828,-6.3152,-6.3154,-6.3155,-6.3292,-6.3294,-6.3296,-6.3224,-6.322,-6.3215,-6.3211,-6.3352,-6.3361,-6.337,0,0,0,0,0,0,0,0,0,0,0,0,0,-6.2964,-6.283,-6.3152,-6.3136,-6.3136,-6.3291,-6.3294,-6.3296,-6.3225,-6.322,-6.3214,-6.3209,-6.335,-6.336,-6.3371,-6.3548,0,0,-6.3404,-6.3409,0,0,0,0,0,0,0,0,-6.2956,-6.2976,-6.3137,-6.3138,-6.3138,-6.3235,-6.3229,-6.3381,-6.3227,-6.3192,-6.3213,-6.3206,-6.3319,-6.3332,-6.3371,-6.3555,-6.3561,-6.3405,-6.3411,-6.3416,-6.3419,0,0,0,0,0,0,0,-6.2946,-6.2969,-6.3207,-6.3139,-6.314,-6.3122,-6.3136,-6.3258,-6.3285,-6.3194,-6.3189,-6.3207,-6.3318,-6.336,-6.3373,-6.3563,-6.3405,-6.3414,-6.3421,-6.3425,-6.3901,-6.3907,0,0,0,0,0,0,-6.2937,-6.2962,-6.3203,-6.3211,-6.3031,-6.3133,-6.3148,-6.3209,-6.3283,-6.3289,-6.3212,-6.3203,-6.3345,-6.3361,-6.3378,-6.3592,-6.3416,-6.3426,-6.3432,-6.3895,-6.3902,-6.3909,0,0,0,0,0,0,-6.293,-6.2959,-6.3197,-6.3085,-6.3114,-6.3144,-6.3213,-6.3215,-6.3257,-6.3296,-6.3301,-6.325,-6.3341,-6.3363,-6.3507,-6.3596,-6.3431,-6.3441,-6.3888,-6.3897,-6.3906,-6.402,0,0,0,0,0,0,-6.2921,-6.2957,-6.3025,-6.3088,-6.3121,-6.3324,-6.3219,-6.3222,-6.3276,-6.3266,-6.3333,-6.3339,-6.3338,-6.3491,-6.3518,-6.3607,-6.3449,-6.388,-6.3892,-6.3903,-6.4008,-6.4032,-6.4052,0,0,0,0,0,-6.291,-6.3051,-6.3029,-6.3059,-6.3206,-6.333,-6.3348,-6.3345,-6.3283,-6.3352,-6.3377,-6.3337,-6.3581,-6.3506,-6.3536,-6.363,-6.3874,-6.3888,-6.3902,-6.3998,-6.4027,-6.4051,0,0,0,0,0,0,-6.2998,-6.3059,-6.3035,-6.3201,-6.3261,-6.3317,-6.3404,-6.3376,-6.3454,-6.3441,-6.3433,-6.3449,-6.3599,-6.3628,-6.3544,-6.3806,-6.3718,-6.3738,-6.3782,-6.3809,-6.383,-6.3821,-6.3458,0,0,0,0,0,-6.3037,-6.3133,-6.318,-6.3322,-6.3354,-6.3374,-6.3427,-6.342,-6.3481,-6.3506,-6.3541,-6.3602,-6.3692,-6.3752,-6.3837,-6.4012,-6.4026,-6.4091,-6.4113,-6.4131,-6.4149,-6.4244,-6.4274,-6.3954,-6.3954,-6.3954,0,0,-6.3119,-6.3164,-6.3224,-6.3341,-6.3387,-6.3486,-6.3395,-6.3503,-6.3577,-6.3522,-6.366,-6.3689,-6.3756,-6.3916,-6.3988,-6.3945,-6.424,-6.4148,-6.4162,-6.4171,-6.4261,-6.4291,-6.4318,-6.3964,-6.3962,-6.3961,0,0,-6.3318,-6.3361,-6.3485,-6.3532,-6.3602,-6.3614,-6.3644,-6.3705,-6.3722,-6.3861,-6.3822,-6.3909,-6.4065,-6.4114,-6.416,-6.4378,-6.4344,-6.4406,-6.4521,-6.4613,-6.4639,-6.4661,-6.474,-6.4768,-6.4424,-6.4424,-6.4424,0,-6.341,-6.3558,-6.3551,-6.3664,-6.3716,-6.3672,-6.3797,-6.3843,-6.3937,-6.3974,-6.3925,-6.412,-6.4162,-6.4333,-6.4387,-6.4425,-6.4459,-6.4399,-6.4636,-6.4658,-6.4679,-6.4754,-6.4783,-6.4431,-6.443,-6.443,-6.4429,0,-6.3668,-6.3771,-6.3862,-6.3956,-6.4018,-6.4136,-6.4148,-6.4212,-6.4199,-6.4217,-6.436,-6.4408,-6.4503,-6.4543,-6.4531,-6.4713,-6.4685,-6.4636,-6.4547,-6.4716,-6.4787,-6.4815,-6.4442,-6.4439,-6.4437,-6.4435,0,0,-6.3927,-6.4016,-6.4049,-6.4091,-6.4165,-6.4245,-6.436,-6.4454,-6.451,-6.4576,-6.4673,-6.4806,-6.4762,-6.4814,-6.4807,-6.4888,-6.5059,-6.4829,-6.4831,-6.4871,-6.5264,-6.5301,-6.5335,-6.5037,-6.5042,-6.5046,-6.5259,0,-6.4132,-6.4336,-6.4334,-6.4522,-6.4617,-6.4576,-6.4677,-6.4733,-6.4753,-6.4837,-6.4858,-6.4953,-6.4886,-6.4918,-6.4996,-6.5022,-6.5138,-6.5006,-6.5127,-6.5132,-6.5113,-6.5371,-6.5411,-6.5609,-6.5286,-6.5291,-6.5294,0,-6.4398,-6.4475,-6.4673,-6.4733,-6.4773,-6.4864,-6.495,-6.503,-6.5093,-6.5102,-6.516,-6.5141,-6.5258,-6.5166,-6.5328,-6.5239,-6.5288,-6.5308,-6.5315,-6.5327,-6.5224,-6.5391,-6.5672,-6.5702,-6.5337,-6.5334,-6.5331,0,-6.4569,-6.4721,-6.4859,-6.4896,-6.497,-6.5035,-6.5069,-6.5126,-6.5183,-6.5257,-6.5294,-6.5381,-6.5429,-6.5497,-6.5502,-6.5434,-6.5666,-6.5573,-6.5676,-6.5677,-6.5728,-6.5725,-6.6022,-6.5758,-6.5757,-6.5757,-6.5756,0,-6.4798,-6.4922,-6.4937,-6.5022,-6.5159,-6.5155,-6.529,-6.5318,-6.537,-6.5459,-6.5429,-6.5513,-6.5514,-6.56,-6.5605,-6.5739,-6.576,-6.577,-6.577,-6.5774,-6.5773,-6.5807,-6.5794,-6.5765,-6.5763,-6.5762,-6.576,0,-6.5012,-6.5028,-6.5176,-6.5234,-6.5252,-6.535,-6.5399,-6.5481,-6.5497,-6.5611,-6.5638,-6.5664,-6.5764,-6.5776,-6.5892,-6.5895,-6.6057,-6.6041,-6.6036,-6.6034,-6.6137,-6.6128,-6.6467,-6.6512,-6.6218,-6.6221,-6.6223,0,-6.5158,-6.5252,-6.5321,-6.5379,-6.5417,-6.5511,-6.5569,-6.5569,-6.563,-6.5709,-6.5781,-6.5878,-6.5956,-6.6118,-6.6148,-6.6237,-6.6224,-6.6336,-6.6237,-6.6238,-6.6227,-6.6222,-6.6231,-6.6356,-6.6359,-6.6362,-6.6364,0,-6.5417,-6.542,-6.5504,-6.5593,-6.5663,-6.5732,-6.5797,-6.5846,-6.5854,-6.5924,-6.6027,-6.6088,-6.6207,-6.6304,-6.6392,-6.6426,-6.6398,-6.6395,-6.6424,-6.6429,-6.6423,-6.6429,-6.609,-6.6388,-6.6385,-6.6383,-6.6382,-6.6381,-6.5602,-6.5684,-6.5745,-6.5841,-6.589,-6.5951,-6.6031,-6.6058,-6.6144,-6.6241,-6.6236,-6.6349,-6.641,-6.6525,-6.6565,-6.6654,-6.6616,-6.6658,-6.6668,-6.6679,-6.669,-6.6408,-6.667,-6.6669,-6.6668,-6.6668,-6.6667,0,-6.5859,-6.5897,-6.5985,-6.6077,-6.6153,-6.6119,-6.6189,-6.6254,-6.6355,-6.6414,-6.6492,-6.661,-6.6704,-6.6741,-6.6833,-6.6897,-6.6886,-6.6921,-6.6917,-6.6926,-6.6718,-6.6684,-6.6929,-6.6929,-6.6929,-6.6929,-6.6929,-6.6928,-6.6002,-6.6139,-6.615,-6.6311,-6.6347,-6.6459,-6.6502,-6.6559,-6.6606,-6.674,-6.6818,-6.6842,-6.6892,-6.6988,-6.7073,-6.7081,-6.7117,-6.7159,-6.7161,-6.6967,-6.694,-6.6915,-6.6884,-6.7166,-6.7166,-6.7362,-6.7364,-6.7365]}]]